This is the latest recevied weather packets stored in our database for station/object KC9GSD. If no packets are shown the sender has not sent any weather packets the latest 10 day(s).
| Time | Temp. | Humidity | Pressure | Rain* | Wind** | Luminosity | Snow |
|---|---|---|---|---|---|---|---|
| 1778105104 | 22.22° C | 85% | 1011 hPa | 0 mm | - | 14 W/m² | - |
| 1778104800 | 22.22° C | 85% | 1011.3 hPa | 0 mm | - | 13 W/m² | - |
| 1778104497 | 22.22° C | 84% | 1011.2 hPa | 0 mm | - | 11 W/m² | - |
| 1778104192 | 22.78° C | 83% | 1011.4 hPa | 0 mm | - | 7 W/m² | - |
| 1778103890 | 22.78° C | 83% | 1011 hPa | 0 mm | - | 24 W/m² | - |
| 1778103587 | 22.78° C | 83% | 1011 hPa | 0 mm | - | 11 W/m² | - |
| 1778103285 | 22.78° C | 83% | 1010.9 hPa | 0 mm | - | 16 W/m² | - |
| 1778102982 | 22.78° C | 82% | 1011 hPa | 0 mm | - | 29 W/m² | - |
| 1778102678 | 22.78° C | 82% | 1011 hPa | 0 mm | - | 40 W/m² | - |
| 1778102378 | 22.78° C | 82% | 1011.1 hPa | 0 mm | - | 33 W/m² | - |
| 1778102074 | 22.78° C | 82% | 1010.7 hPa | 0 mm | - | 30 W/m² | - |
| 1778101771 | 22.78° C | 82% | 1010.9 hPa | 0 mm | - | 35 W/m² | - |
| 1778101468 | 22.78° C | 81% | 1010.9 hPa | 0 mm | - | 50 W/m² | - |
| 1778101165 | 23.33° C | 80% | 1011.1 hPa | 0 mm | - | 35 W/m² | - |
| 1778100861 | 23.33° C | 80% | 1010.9 hPa | 0 mm | - | 23 W/m² | - |
| 1778100557 | 23.89° C | 80% | 1010.9 hPa | 0 mm | - | 67 W/m² | - |
| 1778100255 | 23.89° C | 79% | 1011.1 hPa | 0 mm | - | 102 W/m² | - |
| 1778099953 | 24.44° C | 79% | 1011.1 hPa | 0 mm | - | 135 W/m² | - |
| 1778099650 | 24.44° C | 78% | 1011.3 hPa | 0 mm | - | 203 W/m² | - |
| 1778099346 | 23.89° C | 78% | 1011.1 hPa | 0 mm | - | 241 W/m² | - |
| 1778099044 | 23.89° C | 79% | 1011.4 hPa | 0 mm | - | 184 W/m² | - |
| 1778098740 | 23.89° C | 78% | 1011.4 hPa | 0 mm | - | 123 W/m² | - |
| 1778098438 | 23.89° C | 78% | 1011.8 hPa | 0 mm | - | 102 W/m² | - |
| 1778098134 | 23.89° C | 78% | 1011.8 hPa | 0 mm | - | 138 W/m² | - |
| 1778097830 | 23.89° C | 77% | 1012 hPa | 0 mm | - | 112 W/m² | - |
* Rain latest hour (hover to see other rain measurements)
** Current wind speed in m/s (hover to see current wind gust speed)